Погода в Жанауштогане

Погода в Жанауштогане : погода сейчас, прогноз погоды и архив. Всё, что Вы хотите узнать о погоде в Жанауштогане!

Хотите узнать прогноз погоды в Жанауштогане? Тогда Вам сюда: Погода в Жанауштогане

Поиск расширенной информации на нашем сайте:

Другие новости

Новости СМИ2

Главная страница сайта

Новости сайта

02.10.2013

Напоминаем, что на нашем новом сайте вы можете получить высокодетализированные прогнозы погоды по пунктам России, СНГ и мира (включающие важные для авиации метеовеличины, такие как направление и скорость ветра, видимость, явления погоды, количество и форма облачности, нижняя и верхняя граница облачности), а также ознакомиться с разнообразными материалами по авиационной метеорологии и подборкой полезных ссылок на эту тему.

Сайт Метеоцентр.Азия посвящён разработке технологий оптимизации авиаметеорологического обслуживания, включая проектирование и перспективное создание нескольких автоматизированных авиаметеорологических систем:
- система выпуска высокодетальных прогностических карт явлений погоды для нижнего воздушного пространства по России и ближнему зарубежью;
- система верификации прогнозов TAF (выпускаемых синоптиками официальных АМСГ РФ и ближнего зарубежья) и AUTOTAF (выпускаемых сайтом Метеоцентр.Азия) - выявление ошибок, онлайн-сопоставление с фактической погодой METAR, автоматическое внесение коррективов в прогнозы при резком отклонении фактической погоды от прогноза, подсчёт оправдываемости прогнозов по элементам и в целом;
- система обработки, анализа и отображения авиаметеорологической информации для применения провайдерами метеорологической информации.

Рекомендуем: Подробное описание Крайслер замена катализатора на пламегаситель тут.

Погода в Жанауштогане - сегодня

Время (UTC), дата Ветер
(°,м/с) 
Видим.   Явления Облачность Т
(°С)
Тd
(°С)
f(%) Тe
(°С)
Pmin
(гПа)
dP
(гПа)
Po
(мм)
O2
(г/м3)
Тmin Tmax R s Состояние
почвы
15 21.06.17 320 (СЗ) 20000 м    8/3 1000 м средняя 
[Cu med, cong|Ac trans]
+31 +9.2 26 +31  1003.5  -0.8  753  271    +32.8       
18 21.06.17 250 (З) 20000 м    8/0 средняя 
[Ac trans]
+27.2 +9.8 34 +28  1004.9  1.4  755  275    +32.8       
21 21.06.17 тихо ()   20000 м    6/0 средняя 
[Ac trans]
+22.8 +10.3 45 +24  1003.6  -1.3  754  278           
00 22.06.17 270 (З) 20000 м    8/0 средняя 
[Ac trans]
+19.2 +9.4 53 +21  1003.7  0.2  754  282           
03 22.06.17 270 (З) 20000 м    10/0 средняя, верхняя 
[Ac trans|Ci sp]
+21.4 +9 45 +21  1004.2  0.4  754  280  +19        сухая 
06 22.06.17 270 (З) 20000 м    8/0 средняя 
[Ac trans]
+26.9 +11.3 38 +30  1004.2  754  275  +19         
09 22.06.17 290 (З) 20000 м    8/3 1000 м средняя 
[Cu med, cong|Ac trans]
+30.5 +12.6 33 +35  1003.9  -0.3  754  271           
12 22.06.17 340 (С) 4000 м  гроза, ливневой дождь  9/9 600 м кучево-дожд. 
[Cb cap]
+23.7 +13.3 52 +29  1003.5  -0.4  753  277           
15 22.06.17 200 (Ю) 20000 м  в посл. час гроза{ливн. осадки}  8/6 600 м кучево-дожд., средняя 
[Cb calv|Ac trans]
+21.6 +16.9 75 +34  1003.8  0.3  754  278    +33.4     
18 22.06.17 250 (З) 20000 м  {гроза, ливн. осадки}  9/0 средняя 
[Ac trans]
+21.4 +18.1 81 +36  1005.9  2.2  755  278    +3.3     
21 22.06.17 340 (С) 20000 м    8/0 средняя 
[Ac trans]
+19.9 +13.4 66 +27  1007.7  1.8  757  282           
00 23.06.17 340 (С) 20000 м    9/0 средняя, верхняя 
[Ac trans|Ci sp]
+16.7 +12.5 76 +22  1008.5  0.8  757  285           
03 23.06.17 340 (С) 20000 м    6/0 средняя, верхняя 
[Ac trans|Ci sp]
+17.9 +10.6 62 +20  1010.3  1.8  759  285  +19.5        сухая 
06 23.06.17 тихо ()   20000 м    4/0 верхняя 
[Ci sp]
+23.4 +10.4 44 +25  1011.9  1.5  760  280  +16.5         
09 23.06.17 290 (З) 20000 м    4/3 1000 м верхняя 
[Cu med, cong|Ci sp]
+25.6 +6.4 29 +26  1012.4  0.5  760  279           
12 23.06.17 290 (З) 20000 м    8/3 1000 м верхняя 
[Cu med, cong|Ci sp]
+26.8 +5.5 26 +27  1012.2  -0.2  760  278           
15 23.06.17 290 (З) 20000 м    8/3 1000 м верхняя 
[Cu med, cong|Ci sp]
+26.6 +5.5 26 +27  1011.8  -0.4  760  278    +28       
18 23.06.17 тихо ()   20000 м    8/0 средняя, верхняя 
[Ac trans|Ci sp]
+23.4 +7.1 35 +23  1011.8  760  281    +28       
21 23.06.17 тихо ()   20000 м    8/4 600 м кучево-дожд., средняя 
[Cb calv|Ac trans]
+20.6 +7.4 42 +21  1011.3  -0.4  759  283           
00 24.06.17 200 (Ю) 20000 м    4/0 средняя 
[Ac trans]
+18.2 +7.1 48 +19  1010.4  -0.9  759  285           
03 24.06.17 230 (ЮЗ) 20000 м    4/0 средняя, верхняя 
[Ac trans|Ci sp]
+18.8 +6.7 45 +19  1010.4  759  285           
06 24.06.17 230 (ЮЗ) 20000 м    6/0 средняя, верхняя 
[Ac trans|Ci sp]
+27 +11.2 37 +30  1008.7  -1.8  757  276  +18         
09 24.06.17 200 (Ю) 20000 м  пыльный позёмок  8/3 1000 м средняя 
[Cu med, cong|Ac trans]
+28.5 +11.3 34 +31  1007.5  -1.2  756  274           
12 24.06.17 230 (ЮЗ) 20000 м  пыльный позёмок  8/5 1000 м кучево-дожд., средняя 
[Cb calv|Ac trans]
+28.2 +11.5 35 +31  1005.6  -1.9  755  274           
15 24.06.17 230 (ЮЗ) 20000 м  пыльный позёмок  10/8 1000 м кучево-дожд., средняя 
[Cb cap|Ac trans]
+26 +12.1 42 +30  1004.8  -0.8  754  275    +30       
Время (UTC), дата Ветер
(°,м/с) 
Видим.   Явления Облачность Т
(°С)
Тd
(°С)
f(%) Тe
(°С)
Pmin
(гПа)
dP
(гПа)
Po
(мм)
O2
(г/м3)
Тmin Tmax R s Состояние
почвы

Для получения пояснительной информации подведите курсор к названию столбца.

ПОГОДА в Жанауштогане - архив

Всё, что Вы хотите узнать о погоде в Жанауштогане - удобно и подробно!

Выберите нужную дату (начиная с 1 января 2015* года) и нажмите кнопку "Найти".
Будут отображены архивные сводки погоды по пункту Жанауштоган, начиная с указанной даты.


Отображать данные в формате CSV (для использования в таблицах Excel)


Внимание! Наш архив погоды предназначен исключительно для личного некоммерческого использования в познавательных целях. Если Вам необходимы официальные справки о состоянии погоды (для производственных, юридических, коммерческих и т.п. целей), обращайтесь в органы Росгидромета.

*Примечание: данная дата относится к архиву по метеостанциям СССР (Россия, СНГ, Балтия).
Архив по метеостанциям Зарубежной Европы и Азии (кроме Китая) хранится 10 дней, по другим регионам земного шара (Китай, Африка, Америка, Австралия, Океания) - 1 день.

Жанауштоган - район местоположения метеостанции


Название, широта, долгота, высота метеостанции:
Жанауштоган 47.9°ш. 48.8°д. -10 м над ур. моря [Казахстан]

Дополнительная информация

В oтличие oт бoльшинства пoгoдных сайтoв мы публикуем пoдрoбную метеoинфoрмацию в детальнoм прoфессиoнальнoм фoрмате.

Характеристики температуры и влажнoсти вoздуха измеряются на высoте 2 м в тени вдали oт зданий и деревьев.
Скoрoсть ветра измеряется на высoте 10 м (на урoвне рoста челoвека скoрoсть ветра ниже в 1.5-2 раза). Если метеoстанция нахoдится в гoрoде или в лесу, тo скoрoсть ветра занижена на 2-4 м/с пo сравнению с oткрытым местoм. Скoрoсть ветра над акватoриями крупных рек и oзёр, а также на вершинах хoлмoв на 2-5 м/с выше, чем в oбычных услoвиях.
Атмoсфернoе давление в разных тoчках местнoсти мoжет значительнo oтличаться oт давления на метеoстанции, в зависимoсти oт услoвий рельефа (при пoдъёме на 10 м давление пoнижается примернo на 1 мм рт.ст.).